FDX640 KLAX-KATL

Flight info

Callsign FDX640
Flight time N/A
Altitude 35000
Route DOTSS2 CLEEE PKE HIDAT KA27O NABOB J74 SJN J231 ACH TCC J78 IRW J14 LIT J66 BEATS RUSSA GLAVN2
Aircraft B77L/H-SDE1E2E3FGHIJ2J3J4J5M1RWXY/LB1D1

Departure

Time 2026-05-05 01:19
Airport Los Angeles International Airport (KLAX)

Arrival

Time N/A
Airport Hartsfield Jackson Atlanta International Airport (KATL)
Time Latitude Longitude Altitude Speed Heading
2026-05-05 00:52 33.93405 -118.38839 130 ft 0 kts 173°
2026-05-05 01:11 33.93406 -118.38840 130 ft 2 kts 173°
2026-05-05 01:11 33.93431 -118.38843 126 ft 4 kts 173°
2026-05-05 01:11 33.93458 -118.38847 125 ft 4 kts 173°
2026-05-05 01:11 33.93485 -118.38850 126 ft 4 kts 173°
2026-05-05 01:12 33.93511 -118.38854 127 ft 3 kts 173°
2026-05-05 01:12 33.93534 -118.38859 124 ft 4 kts 157°
2026-05-05 01:12 33.93553 -118.38873 124 ft 4 kts 120°
2026-05-05 01:12 33.93559 -118.38898 124 ft 4 kts 81°
2026-05-05 01:13 33.93552 -118.38928 124 ft 4 kts 70°
2026-05-05 01:13 33.93544 -118.38959 125 ft 4 kts 78°
2026-05-05 01:13 33.93542 -118.38967 126 ft 0 kts 83°
2026-05-05 01:15 33.93543 -118.38962 126 ft 6 kts 83°
2026-05-05 01:15 33.93558 -118.38819 129 ft 27 kts 83°
2026-05-05 01:16 33.93583 -118.38550 128 ft 34 kts 83°
2026-05-05 01:16 33.93600 -118.38397 129 ft 15 kts 82°
2026-05-05 01:16 33.93614 -118.38305 126 ft 9 kts 65°
2026-05-05 01:16 33.93623 -118.38293 127 ft 0 kts 44°
2026-05-05 01:18 33.93648 -118.38279 126 ft 14 kts 15°
2026-05-05 01:18 33.93730 -118.38361 124 ft 19 kts 263°
2026-05-05 01:19 33.93703 -118.38616 130 ft 59 kts 263°
2026-05-05 01:19 33.93607 -118.39520 125 ft 157 kts 262°
2026-05-05 01:19 33.93434 -118.41034 662 ft 182 kts 260°
2026-05-05 01:19 33.93281 -118.42487 1950 ft 176 kts 262°
2026-05-05 01:20 33.93137 -118.43955 2685 ft 181 kts 262°
2026-05-05 01:20 33.92946 -118.45533 3009 ft 203 kts 252°
2026-05-05 01:20 33.92139 -118.47061 3200 ft 229 kts 231°
2026-05-05 01:20 33.91133 -118.48597 3961 ft 235 kts 233°
2026-05-05 01:21 33.90111 -118.50162 4857 ft 240 kts 233°
2026-05-05 01:21 33.89063 -118.51722 5744 ft 244 kts 233°
2026-05-05 01:21 33.88003 -118.53301 6630 ft 247 kts 233°
2026-05-05 01:21 33.86863 -118.54898 7304 ft 253 kts 222°
2026-05-05 01:22 33.85273 -118.55851 8101 ft 261 kts 193°
2026-05-05 01:22 33.83441 -118.55852 8902 ft 269 kts 172°
2026-05-05 01:22 33.81592 -118.55352 9653 ft 276 kts 169°
2026-05-05 01:22 33.79703 -118.54817 10409 ft 283 kts 170°
2026-05-05 01:23 33.77743 -118.54269 10716 ft 307 kts 170°
2026-05-05 01:23 33.75571 -118.53675 10942 ft 334 kts 170°
2026-05-05 01:23 33.73213 -118.53032 11272 ft 354 kts 168°
2026-05-05 01:23 33.70912 -118.51831 11737 ft 374 kts 147°
2026-05-05 01:24 33.69077 -118.49548 12524 ft 388 kts 126°
2026-05-05 01:24 33.67950 -118.46580 13341 ft 396 kts 111°
2026-05-05 01:24 33.67076 -118.43399 13988 ft 405 kts 110°
2026-05-05 01:24 33.66177 -118.40176 14803 ft 408 kts 112°
2026-05-05 01:25 33.65240 -118.36947 15645 ft 411 kts 112°
2026-05-05 01:25 33.64399 -118.33651 16322 ft 416 kts 103°
2026-05-05 01:25 33.64236 -118.30176 16765 ft 428 kts 92°
2026-05-05 01:25 33.64293 -118.26568 17400 ft 435 kts 91°
2026-05-05 01:26 33.64365 -118.22918 18202 ft 438 kts 92°
2026-05-05 01:26 33.64420 -118.19245 18855 ft 443 kts 92°
2026-05-05 01:26 33.64452 -118.15517 19387 ft 450 kts 93°
2026-05-05 01:26 33.64464 -118.11734 19927 ft 457 kts 93°
2026-05-05 01:27 33.64465 -118.07895 20492 ft 463 kts 94°
2026-05-05 01:27 33.64460 -118.04009 21057 ft 469 kts 94°
2026-05-05 01:27 33.64453 -118.00076 21646 ft 474 kts 94°
2026-05-05 01:27 33.64446 -117.96085 22192 ft 481 kts 94°
2026-05-05 01:28 33.64438 -117.92040 22724 ft 487 kts 94°
2026-05-05 01:28 33.64430 -117.87956 23252 ft 493 kts 94°
2026-05-05 01:28 33.64421 -117.83809 23752 ft 499 kts 94°
2026-05-05 01:28 33.64433 -117.79609 24211 ft 505 kts 92°
2026-05-05 01:29 33.64875 -117.75403 24631 ft 515 kts 82°
2026-05-05 01:29 33.65692 -117.71251 25050 ft 521 kts 79°
2026-05-05 01:29 33.66622 -117.67014 25490 ft 527 kts 78°
2026-05-05 01:29 33.67561 -117.62728 25929 ft 532 kts 79°
2026-05-05 01:30 33.68466 -117.58400 26362 ft 536 kts 80°
2026-05-05 01:30 33.69335 -117.54030 26828 ft 540 kts 81°
2026-05-05 01:30 33.70183 -117.49613 27272 ft 545 kts 82°
2026-05-05 01:30 33.71025 -117.45149 27546 ft 551 kts 82°
2026-05-05 01:31 33.71866 -117.40650 28019 ft 553 kts 83°
2026-05-05 01:31 33.72719 -117.36124 28461 ft 557 kts 82°
2026-05-05 01:31 33.73584 -117.31566 28817 ft 563 kts 83°
2026-05-05 01:31 33.74459 -117.26952 29172 ft 567 kts 83°
2026-05-05 01:32 33.75239 -117.22299 29550 ft 566 kts 90°
2026-05-05 01:32 33.75386 -117.17633 29954 ft 555 kts 101°
2026-05-05 01:32 33.75157 -117.13028 30453 ft 551 kts 103°
2026-05-05 01:32 33.74899 -117.08429 30960 ft 550 kts 102°
2026-05-05 01:33 33.74720 -117.03897 31442 ft 551 kts 101°
2026-05-05 01:33 33.74616 -116.99291 31888 ft 552 kts 100°
2026-05-05 01:33 33.74537 -116.94691 32306 ft 551 kts 100°
2026-05-05 01:33 33.74449 -116.90073 32724 ft 551 kts 101°
2026-05-05 01:34 33.74351 -116.85477 33106 ft 550 kts 101°
2026-05-05 01:34 33.74247 -116.80888 33547 ft 549 kts 101°
2026-05-05 01:34 33.74138 -116.76289 33983 ft 548 kts 101°
2026-05-05 01:34 33.74029 -116.71716 34276 ft 548 kts 101°
2026-05-05 01:35 33.73918 -116.67143 34588 ft 548 kts 102°
2026-05-05 01:35 33.73804 -116.62562 34807 ft 550 kts 102°
2026-05-05 01:35 33.73578 -116.53381 34923 ft 553 kts 102°
2026-05-05 01:36 33.73337 -116.44084 34911 ft 557 kts 102°
2026-05-05 01:36 33.73098 -116.34838 34908 ft 557 kts 103°
2026-05-05 01:37 33.72847 -116.25473 34879 ft 557 kts 103°
2026-05-05 01:37 33.72592 -116.16240 34882 ft 556 kts 103°
2026-05-05 01:38 33.72494 -116.06927 34864 ft 569 kts 94°
2026-05-05 01:38 33.73342 -116.02197 34901 ft 586 kts 80°
2026-05-05 01:38 33.74643 -115.97543 34886 ft 590 kts 77°
2026-05-05 01:39 33.77489 -115.88276 34868 ft 590 kts 77°
2026-05-05 01:39 33.80238 -115.78973 34856 ft 589 kts 79°
2026-05-05 01:40 33.82826 -115.69645 34851 ft 588 kts 80°
2026-05-05 01:40 33.85349 -115.60348 34850 ft 588 kts 80°
2026-05-05 01:41 33.87901 -115.50976 34842 ft 589 kts 80°
2026-05-05 01:41 33.90459 -115.41597 34828 ft 589 kts 79°
2026-05-05 01:42 33.93014 -115.32224 34843 ft 589 kts 80°
2026-05-05 01:42 33.95555 -115.22860 34836 ft 588 kts 80°
2026-05-05 01:43 33.98076 -115.13527 34841 ft 588 kts 80°
2026-05-05 01:43 34.00601 -115.04147 34827 ft 589 kts 80°
2026-05-05 01:44 34.03124 -114.94746 34837 ft 589 kts 80°
2026-05-05 01:44 34.05634 -114.85361 34833 ft 588 kts 80°
2026-05-05 01:45 34.08123 -114.76020 34834 ft 588 kts 80°